Printer-friendly version

IAU Minor Planet Center

Minor Planet Center

MPEC 2005-L13 : 2002 PG43

The following Minor Planet Electronic Circular may be linked-to from your own Web pages, but must not otherwise be redistributed electronically.


Read MPEC 2005-L12 Read MPEC 2005-L14


M.P.E.C. 2005-L13                                Issued 2005 June 5, 01:33 UT

     The Minor Planet Electronic Circulars contain information on unusual
         minor planets and routine data on comets.  They are published
   on behalf of Commission 20 of the International Astronomical Union by the
          Minor Planet Center, Smithsonian Astrophysical Observatory,
                          Cambridge, MA 02138, U.S.A.

                  Supported in part by the Brinson Foundation
             Prepared using the Tamkin Foundation Computer Network

                              MPC@CFA.HARVARD.EDU
          URL http://cfa-www.harvard.edu/iau/mpc.html  ISSN 1523-6714

                                   2002 PG43

                           Revision to MPEC 2002-P54

Additional Observations:
     K02P43G HC2004 03 15.27169 11 05 10.97 +05 36 55.4          22.4 V EL013291
     K02P43G HC2004 03 15.27577 11 05 10.78 +05 36 57.0          22.0 V EL013291
     K02P43G HC2004 03 15.27978 11 05 10.39 +05 36 58.8          22.0 V EL013291
     K02P43G  C2005 06 04.51968 16 48 44.98 -37 02 53.6          20.4 R EL013474
     K02P43G IC2005 06 04.52130 16 48 44.78 -37 02 53.5                 EL013474
     K02P43G IC2005 06 04.52707 16 48 44.30 -37 02 54.3                 EL013474
     K02P43G IC2005 06 04.53063 16 48 43.84 -37 02 54.8                 EL013474

Observer details:
291 LPL/Spacewatch II.  Observer M. Block.  1.8-m Spacewatch telescope.
474 Mount John Observatory, Lake Tekapo.  Observers A. C. Gilmore,
    P. M. Kilmartin.  Measurer P. M. Kilmartin.  1.0-m f/7.7 reflector + CCD.

First and last observations above in comparison with prediction:
Residuals in seconds of arc, reference and Delta-T
040315 291  9.3+  5.1-    050604 474 62.8+ 12.5-    MPO 41769   -0.024 day

Orbital elements:
2002 PG43
Epoch 2005 Jan. 30.0 TT = JDT 2453400.5                 MPC
M 269.97089              (2000.0)            P               Q
n   0.30743905     Peri.    5.32809     +0.99110107     +0.13034871
a   2.1741860      Node   347.08810     -0.12615311     +0.85512355
e   0.4027979      Incl.    6.93469     -0.04247414     +0.50176979
P   3.21           H   18.3           G   0.15           U   2
Residuals in seconds of arc
020810 704  0.2-  0.3-    020910 071  1.3+  0.5+    021008 704  1.3+  0.1+
020810 704  0.2-  1.2+    020910 071  0.8+  1.2-    021008 240  0.2-  0.1-
020810 704  0.5-  0.6-    020910 941  0.7+  0.6-    021008 240  0.1+  0.1-
020810 704  0.6-  0.2-    020910 941  0.2+  0.1-    021008 240  0.2+  0.7-
020811 858 (3.3+  0.8+)   020910 941  0.2-  0.4+    021010 704  0.6-  0.1-
020811 858  1.6+  0.2-    020910 941  0.5-  0.4+    021010 704  0.4-  0.1-
020811 858  1.6+  0.1-    020910 941  0.4-  0.2+    021010 704  1.0-  0.6-
020811 734  0.2+  0.1-    020910 848  0.2-  0.7-    021010 704  0.4-  0.1-
020811 704  0.2-  0.1+    020910 848  0.2+  0.0     021010 704  0.3-  0.7-
020811 734  0.1-  1.2+    020910 848  0.6-  0.8-    021012 704  0.2+  0.1-
020811 704  0.3-  0.1-    020911 848  0.0   0.5-    021012 704  0.1+  0.1-
020811 649  0.1-  0.1-    020911 848  0.1+  0.3-    021012 704  0.2+  0.4-
020811 704  0.0   0.4+    020911 848  0.5+  0.3+    021012 704  0.2+  0.5-
020811 649  0.1+  0.3-    020913 642  3.0-  0.7-    021012 704  0.0   0.2-
020811 704  0.2+  0.3+    020913 642  1.6+  2.7+    021012 J87  0.1+  0.1+
020811 704  0.5-  0.2-    020913 642 (2.3+  4.1+)   021012 J87  0.4-  0.3-
020812 704  0.2+  0.0     020913 215  0.0   0.1-    021012 J87  0.2+  0.2-
020812 704  0.4+  0.5-    020913 215  0.4-  0.2-    021012 J87  0.3+  0.1+
020812 704  0.4-  0.3-    020913 215  0.0   0.2-    021012 941  1.1+  0.1-
020812 704  2.1-  0.5-    020914 118  0.2-  0.4+    021012 941  1.1+  0.4-
020812 704  0.6-  0.6-    020914 118  0.4-  0.6-    021012 941  1.1+  0.3-
020812 704  0.5+  0.3-    020914 118  0.2-  0.3-    021012 941  0.4+  0.1-
020812 704  0.6-  0.8-    020914 151  0.3+  0.1+    021012 941  0.6+  0.3-
020812 704  0.5+  0.4-    020914 151  0.1-  0.3+    021012 941  0.3-  0.1+
020812 848  0.0   2.1+    020914 151  0.4-  0.1+    021012 170  0.1+  0.4-
020812 848  1.3+  0.9+    020914 151  0.3-  0.0     021013 170  0.2+  1.6-
020812 848  0.6+  1.2-    020914 151  0.0   0.3-    021013 170  1.0-  0.4+
020813 704  0.6-  0.2-    020914 151  0.0   0.6-    021013 170  0.1+  1.5+
020813 704  0.3-  0.3-    020914 151  0.2-  0.0     021013 212  0.3+  0.6-
020813 704  0.6-  0.6-    020914 151  0.3-  0.1+    021013 212  0.5-  0.2+
020813 704  0.6-  0.6-    020914 151  0.4-  0.1-    021015 704  0.5+  1.1-
020813 704  0.4-  0.2-    020914 151  0.3-  0.2-    021015 704  0.0   0.0
020816 649  0.2-  0.2-    020916 608  0.4+  1.5+    021015 704  0.1-  0.5-
020816 649  0.2-  0.9-    020916 608  0.5+  1.9+    021015 704  0.1-  0.2+
020816 649  0.2+  0.4-    020916 608  0.4+  2.0+    021015 704  0.0   0.1+
020819 413  0.1+  0.5-    020921 608  0.9-  1.8+    021017 704  0.1+  0.1-
020819 413  0.2+  0.4-    020921 608  0.8-  1.8+    021017 704  0.1-  0.4-
020822 670  0.9-  0.6+    020921 608  0.8-  1.7+    021017 704  0.4-  0.4+
020822 670  2.1-  0.7+    020928 151  0.1+  0.3+    021018 560  0.5-  0.2-
020830 649  0.2-  0.0     020928 151  0.1-  0.4+    021018 560  0.3-  0.0
020830 649  0.2-  0.1-    020928 151  0.1-  0.0     021018 560  0.0   0.1-
020830 649  0.3-  0.1-    020928 151  0.7+  0.4-    021018 560  0.1+  0.1-
020831 734  0.5-  0.1+    020928 151  1.0+  0.1+    021019 941  0.2+  0.4+
020831 734  0.2+  0.7+    020929 941  0.1-  0.4-    021019 941  0.5+  0.0
020831 734  1.2-  0.7-    020929 941  0.3+  0.5-    021019 941  0.5+  0.2-
020831 848  1.1-  0.3+    020929 941  0.3+  0.6-    021019 941  0.8+  0.4-
020831 848  0.4-  0.1-    020929 941  0.5+  0.2-    021019 941  0.4+  0.5-
020831 848  0.4+  0.5+    020929 118  0.2+  0.2-    021027 170  0.1-  0.1+
020904 246  0.4+  0.3-    020929 118  0.2+  0.1-    021027 170  1.1-  0.5-
020904 246  0.0   0.6-    020929 118  0.1-  0.1+    021027 170  0.0   0.1+
020904 246  0.0   0.4-    021002 118  0.1+  0.2+    021028 670  0.2+  0.3-
020904 246  0.4-  0.1-    021002 118  0.0   0.1-    021028 670  0.2+  0.5-
020904 246  0.1-  0.5-    021002 118  0.5-  0.2+    021028 670  0.5-  0.4+
020904 246  0.1+  0.6-    021004 699  0.6-  0.0     021101 212  0.3+  0.0
020904 246  0.2-  0.2-    021004 699  0.5-  0.2+    021101 212  0.1+  0.7-
020904 246  0.1-  0.4-    021004 699  0.3-  0.0     021114 644  0.3-  0.1+
020906 704  0.2+  0.5+    021004 699  0.7-  0.1-    021114 644  0.3-  0.1+
020906 704  0.0   0.9+    021005 704  0.2-  0.1-    021114 644  0.2-  0.0
020906 704  0.1+  0.8+    021005 704  0.0   0.1+    021202 704  0.5-  0.2-
020906 704  0.2-  0.5+    021005 704  0.2-  0.1+    021202 704  0.5-  0.4+
020906 704  0.4-  0.5+    021005 704  0.1-  0.7+    021202 704  0.1-  0.4-
020908 118  0.5+  0.1+    021005 704  0.4+  0.1+    021202 704  0.0   0.1+
020908 118  0.4+  0.0     021005 941  0.3-  0.3+    040315 291  0.7+  0.1-
020908 118  0.6+  0.2-    021005 941  0.1+  0.2+    040315 291  1.7+  0.3+
020908 118  0.2+  0.3-    021005 941  0.4+  0.2+    040315 291  0.4-  1.0+
020909 670  0.1-  0.7-    021005 941  0.1-  0.1-    050604 474  0.3+  0.2-
020909 670  0.1-  1.0-    021005 941  0.1+  0.5+    050604 474  0.3-  0.0
020909 670  0.5+  0.8-    021008 704  0.3+  0.8-    050604 474  0.5+  0.5-
020910 071  1.4+  0.3+    021008 704  0.5+  0.3-    050604 474  0.9-  0.8-

Ephemeris:
2002 PG43                a,e,i = 2.17, 0.40, 7                   q = 1.2984
Date    TT    R. A. (2000) Decl.     Delta      r     Elong.  Phase     V
2005 05 30    16 56.78   -36 54.0    0.961    1.955   163.6     8.4    20.3
2005 06 09    16 41.81   -37 03.6    0.906    1.904   164.7     8.1    20.0
2005 06 19    16 26.23   -36 43.3    0.872    1.853   157.6    12.1    20.1
2005 06 29    16 12.64   -35 56.7    0.859    1.801   147.4    17.7    20.2
2005 07 09    16 03.17   -34 53.6    0.864    1.750   136.9    23.4    20.3
2005 07 19    15 59.09   -33 46.4    0.881    1.699   127.1    28.5    20.4
2005 07 29    16 00.67   -32 44.3    0.906    1.649   118.1    32.9    20.6
2005 08 08    16 07.66   -31 51.6    0.937    1.600   110.1    36.5    20.7
2005 08 18    16 19.61   -31 08.3    0.970    1.553   103.1    39.4    20.8
2005 08 28    16 35.94   -30 31.2    1.002    1.507    97.0    41.7    20.8
2005 09 07    16 56.17   -29 55.3    1.034    1.465    91.7    43.4    20.9
2005 09 17    17 19.84   -29 14.9    1.064    1.426    87.1    44.8    20.9
2005 09 27    17 46.43   -28 23.7    1.091    1.391    83.1    45.7    20.9
2005 10 07    18 15.49   -27 16.2    1.118    1.360    79.7    46.3    21.0
2005 10 17    18 46.51   -25 47.5    1.144    1.335    76.8    46.6    21.0
2005 10 27    19 18.92   -23 54.0    1.171    1.316    74.4    46.7    21.0
2005 11 06    19 52.21   -21 34.3    1.200    1.304    72.3    46.4    21.0
2005 11 16    20 25.90   -18 48.8    1.232    1.298    70.6    45.9    21.1
2005 11 26    20 59.54   -15 40.0    1.269    1.300    69.1    45.2    21.1
2005 12 06    21 32.86   -12 12.3    1.312    1.308    67.7    44.2    21.2
2005 12 16    22 05.65   -08 31.0    1.363    1.324    66.4    42.9    21.2
2005 12 26    22 37.80   -04 42.4    1.422    1.345    65.1    41.5    21.3
2006 01 05    23 09.31   -00 52.2    1.489    1.373    63.7    39.9    21.4
2006 01 15    23 40.18   +02 54.0    1.564    1.405    62.1    38.2    21.5
2006 01 25    00 10.47   +06 31.4    1.648    1.442    60.3    36.4    21.7

Gareth V. Williams           (C) Copyright 2005 MPC           M.P.E.C. 2005-L13

Read MPEC 2005-L12 Read MPEC 2005-L14


Our Web policy. Index to the CBAT/MPC/ICQ pages.


Valid HTML 4.01!